GW4012 Weather Reports


time (UTC)temp
F
wind
direction
speed
knots
gust
knots
rain 1hr
in
rain 24hr
in
rain mn
in
humidity
%
barometer
mb
20260506112943 57 165 0.9 2.6 0.00 0.00 0.00 84 1019.3
20260506111442 58 166 0.9 2.6 0.00 0.00 0.00 83 1019.2
20260506105939 58 171 0.0 0.0 0.00 0.00 0.00 83 1019.1
20260506104437 58 156 0.0 0.0 0.00 0.00 0.00 83 1018.8
20260506102934 58 175 0.0 0.9 0.00 0.00 0.00 82 1018.9
20260506101431 58 168 0.0 0.0 0.00 0.00 0.00 82 1018.7
20260506095931 58 174 0.0 0.9 0.00 0.00 0.00 82 1018.6
20260506094429 59 175 0.0 1.7 0.00 0.00 0.00 81 1018.6
20260506092928 59 174 0.0 0.0 0.00 0.00 0.00 81 1018.8
20260506091426 59 163 0.0 1.7 0.00 0.00 0.00 81 1018.6
20260506085923 59 166 0.9 2.6 0.00 0.00 0.00 80 1018.7
20260506084419 59 165 0.9 1.7 0.00 0.00 0.00 80 1018.8
20260506082916 59 169 0.9 1.7 0.00 0.00 0.00 80 1018.8
20260506081413 59 175 0.0 0.0 0.00 0.00 0.00 80 1018.7
20260506072905 60 171 0.9 0.9 0.00 0.00 0.00 79 1018.5
20260506071404 60 179 0.0 0.0 0.00 0.00 0.00 79 1018.1
20260506061350 60 176 0.0 0.0 0.00 0.02 0.02 80 1017.7
20260506051341 61 193 0.0 0.9 0.00 0.02 0.02 79 1017.1
20260506044336 61 188 0.9 1.7 0.00 0.02 0.02 78 1016.9
20260506042835 61 203 0.9 0.9 0.00 0.02 0.02 78 1016.7
20260506041334 62 201 0.9 2.6 0.00 0.02 0.02 77 1016.3
20260506035831 63 189 0.9 0.9 0.00 0.02 0.02 77 1016.0
20260506034328 63 172 0.0 0.0 0.00 0.02 0.02 78 1016.2
20260506032824 63 160 0.9 0.9 0.00 0.02 0.02 76 1016.1
20260506031321 63 175 0.0 1.7 0.00 0.02 0.02 76 1015.7
20260506025819 63 185 0.9 3.5 0.00 0.02 0.02 74 1015.6
20260506024315 64 178 0.0 2.6 0.00 0.02 0.02 74 1015.6
20260506022810 64 183 0.0 0.0 0.00 0.02 0.02 73 1015.3
20260506021309 64 161 1.7 3.5 0.00 0.02 0.02 72 1015.1
20260506015806 64 144 0.0 0.9 0.00 0.02 0.02 73 1015.2
20260506014303 64 113 3.5 5.2 0.00 0.02 0.02 72 1015.3
20260506012759 65 196 1.7 2.6 0.00 0.02 0.02 72 1014.9
20260506011255 65 154 0.0 3.5 0.00 0.02 0.02 70 1014.8
20260506005754 65 160 0.9 2.6 0.00 0.02 0.02 69 1014.8
20260506004250 66 178 0.9 1.7 0.00 0.02 0.02 67 1014.9
20260506002750 66 166 0.0 2.6 0.00 0.02 0.02 65 1014.6
20260506001246 67 167 1.7 1.7 0.00 0.02 0.02 63 1014.5
20260505235743 67 155 0.9 2.6 0.00 0.02 0.02 63 1014.6
20260505234241 69 168 0.0 1.7 0.00 0.02 0.02 61 1014.6
20260505232738 69 200 0.0 0.9 0.00 0.02 0.02 59 1014.5
20260505231237 71 210 3.5 5.2 0.00 0.02 0.02 56 1014.7
20260505225733 71 211 1.7 6.1 0.00 0.02 0.02 59 1014.6
20260505224229 68 192 0.9 0.9 0.00 0.02 0.02 61 1014.6
20260505222725 66 176 0.0 1.7 0.00 0.02 0.02 63 1014.9
20260505221221 67 248 0.9 0.9 0.00 0.02 0.02 62 1015.1
20260505215719 67 338 0.9 1.7 0.00 0.02 0.02 60 1015.0
20260505214217 68 189 0.0 1.7 0.00 0.02 0.02 64 1015.1
20260505212713 67 187 1.7 1.7 0.00 0.02 0.02 65 1015.4
20260505211211 66 185 1.7 3.5 0.00 0.02 0.02 67 1015.3
20260505205708 66 148 0.0 1.7 0.00 0.02 0.02 66 1015.3
20260505204206 66 174 1.7 2.6 0.00 0.02 0.02 67 1015.4
20260505202701 66 219 0.0 0.9 0.00 0.02 0.02 66 1015.6
20260505201158 64 152 2.6 3.5 0.00 0.02 0.02 70 1015.5
20260505195654 64 188 0.0 0.9 0.00 0.02 0.02 70 1015.6
20260505194151 62 166 0.9 2.6 0.00 0.02 0.02 74 1015.7
20260505192649 64 181 0.0 0.9 0.00 0.02 0.02 72 1015.7
20260505191148 65 270 0.9 1.7 0.00 0.02 0.02 69 1015.8
20260505185646 64 159 1.7 6.1 0.00 0.02 0.02 73 1015.7
20260505184142 62 146 1.7 2.6 0.00 0.02 0.02 76 1015.5
20260505182638 62 181 0.9 1.7 0.00 0.02 0.02 76 1015.5
20260505181135 60 181 0.9 1.7 0.00 0.02 0.02 81 1015.6
20260505175630 60 211 0.0 3.5 0.00 0.02 0.02 83 1015.5
20260505174126 60 164 3.5 3.5 0.00 0.02 0.02 81 1015.3
20260505172623 58 163 2.6 3.5 0.00 0.02 0.02 86 1015.2
20260505171123 57 151 2.6 2.6 0.00 0.02 0.02 87 1015.4
20260505165623 57 164 2.6 2.6 0.00 0.02 0.02 87 1015.4
20260505164119 58 191 1.7 5.2 0.00 0.02 0.02 89 1015.2
20260505162617 55 198 0.9 1.7 0.00 0.02 0.02 93 1015.3
20260505161114 54 147 0.9 2.6 0.00 0.02 0.02 94 1015.3
20260505152608 53 161 1.7 2.6 0.00 0.02 0.02 97 1015.0
20260505151103 53 145 0.9 0.9 0.00 0.02 0.02 97 1015.0
20260505124039 53 172 1.7 1.7 0.00 0.02 0.02 98 1014.1
20260505122535 52 167 0.0 2.6 0.00 0.02 0.02 98 1013.9
20260505121031 52 183 0.0 1.7 0.00 0.02 0.02 98 1013.9
20260505115530 52 173 0.0 0.9 0.00 0.02 0.02 98 1014.0